#timestamp,LO_Frequency,Hit,StdDev 
1523887215.7,286046998.5,N
1523887235.6,286046998.8,N
1523887255.4,286046998.7,N
1523887275.2,286046998.9,N
1523887295.1,286046997.1,N
1523887296.0,286046997.1,N
1523887315.8,286047001.1,N
1523887335.7,286047003.4,N
1523887355.5,286047011.7,Y
1523887375.3,286047019.2,P
1523887395.2,286047018.3,N
1523887415.0,286047014.8,N
1523887415.9,286047014.8,N
1523887435.8,286047013.8,N
1523887455.6,286047010.8,N
1523887475.4,286047006.4,N
1523887495.3,286047005.4,N
1523887515.1,286047003.9,N
1523887535.9,286047004.3,N
1523887555.8,286047004.1,N
1523887575.7,286047004.1,N
1523887595.5,286047003.9,N
1523887615.4,286047001.6,N
1523887635.2,286047001.0,N
1523887655.0,286047000.9,N
1523887655.9,286047000.9,N
1523887675.8,286047001.0,N
1523887695.6,286047000.7,N
1523887715.5,286047000.4,N
1523887735.3,286047000.3,N
1523887755.1,286047000.4,N
1523887775.9,286047000.5,N
1523887795.7,286047000.3,N
1523887815.5,286046998.2,N
1523887835.4,286047002.7,N
1523887855.2,286047000.7,N
1523887875.1,286047000.2,N
1523887876.0,286047000.2,N
1523887895.8,286047000.2,N
1523887915.6,286047000.5,N
1523887935.5,286047000.9,N
1523887955.3,286047001.0,N
1523887975.2,286046998.2,N
1523887995.9,286046998.4,N
1523888015.7,286047000.9,N
1523888035.6,286047001.1,N
1523888055.4,286046998.6,N
1523888075.2,286046998.4,N
1523888095.1,286046999.2,N
1523888096.0,286046999.2,N
1523888115.8,286046996.7,N
1523888135.7,286046996.5,N
1523888155.5,286047000.7,N
1523888175.3,286046998.4,N
1523888195.2,286046998.9,N
1523888215.0,286046998.4,N
1523888215.9,286046998.4,N
1523888235.7,286046997.2,N
1523888255.6,286046997.4,N
1523888275.4,286046997.0,N
1523888295.3,286046997.2,N
1523888315.1,286046999.2,N
1523888316.0,286046999.2,N
1523888335.8,286046997.1,N
1523888355.7,286046996.6,N
1523888375.5,286046999.5,N
1523888395.4,286046999.2,N
1523888415.2,286046997.7,N
1523888435.0,286046997.0,N
1523888435.9,286046997.0,N
1523888455.8,286046999.6,N
1523888475.6,286046999.5,N
1523888495.4,286046997.7,N
1523888515.3,286046996.7,N
1523888535.1,286046996.5,N
1523888555.9,286046995.1,Y
1523888575.7,286046998.9,P
1523888595.5,286046996.8,P
1523888615.4,286046996.9,P
1523888635.2,286046996.5,Y
1523888655.1,286046999.8,P
1523888656.0,286046999.8,N
1523888675.8,286047002.5,N
1523888695.6,286047001.8,N
1523888715.5,286047001.6,N
1523888735.3,286047001.9,N
1523888755.1,286047001.9,N
1523888775.9,286047001.6,N
1523888795.7,286047001.4,N
1523888815.6,286047004.0,N
1523888835.4,286047003.2,N
1523888855.2,286047004.1,N
1523888875.1,286047001.4,N
1523888876.0,286047001.4,N
1523888895.8,286047001.3,N
1523888915.6,286047002.6,N
1523888935.5,286047002.5,N
1523888955.3,286047002.5,N
1523888975.2,286047002.4,N
1523888995.9,286047002.5,N
1523889015.7,286047002.0,N
1523889035.6,286047001.3,N
1523889055.4,286047003.8,N
1523889075.2,286047003.2,N
1523889095.1,286047001.7,N
1523889096.0,286047001.7,N
1523889115.8,286047002.1,N
1523889135.7,286047001.7,N
1523889155.5,286047001.8,N
1523889175.3,286047002.3,N
1523889195.2,286047000.1,N
1523889215.0,286047002.3,N
1523889215.9,286047002.3,N
1523889235.8,286047002.4,N
1523889255.6,286047002.7,Y
1523889275.4,286047000.4,P
1523889295.3,286047000.0,N
1523889315.1,286046999.9,N
1523889335.8,286047001.9,N
1523889355.7,286047001.5,N
1523889375.5,286047002.7,N
1523889395.4,286047000.6,N
1523889415.2,286046998.5,N
1523889435.0,286047000.6,N
1523889435.9,286047000.6,N
1523889455.8,286047001.1,N
1523889475.6,286046999.4,N
1523889495.4,286046998.7,N
1523889515.3,286046998.6,N
1523889535.1,286046999.1,N
1523889555.9,286046998.7,N
1523889575.7,286046998.2,N
1523889595.5,286046999.8,N
1523889615.4,286047000.6,N
1523889635.2,286047000.3,N
1523889655.0,286047000.3,N
1523889655.9,286047000.3,N
1523889675.8,286047000.4,N
1523889695.6,286047000.0,N
1523889715.5,286047000.2,N
1523889735.3,286047000.2,N
1523889755.1,286047000.2,N
1523889775.9,286046999.8,N
1523889795.7,286047000.5,N
1523889815.5,286047000.6,N
1523889835.4,286047000.0,N
1523889855.4,286047001.0,N
1523889875.2,286047000.0,N
1523889895.0,286046999.9,N
1523889895.9,286046999.9,N
1523889915.8,286047002.4,N
1523889935.6,286047000.2,N
1523889955.5,286046999.8,N
1523889975.3,286047000.1,N
1523889995.1,286047000.2,N
1523890015.9,286046999.8,N
1523890035.7,286047002.8,Y
1523890055.5,286047002.2,P
1523890075.4,286047002.0,N
1523890095.2,286047002.5,N
1523890115.1,286047000.1,N
1523890116.0,286047000.1,N
1523890135.8,286046999.8,N
1523890155.6,286046999.7,N
1523890175.5,286047002.8,N
1523890195.3,286047002.1,N
1523890215.1,286047002.2,N
1523890265.9,286047000.8,E
1523890275.8,286046998.2,N
1523890295.7,286046998.1,P
1523890315.5,286046998.2,P
1523890335.4,286046998.7,Y
1523890355.2,286046999.9,P
1523890375.0,286047000.0,N
1523890375.9,286047000.0,N
1523890395.8,286047001.4,N
1523890415.6,286047004.2,Y
1523890435.4,286047001.7,P
1523890455.3,286047002.0,N
1523890475.1,286047004.1,P
1523890495.9,286047004.4,N
1523890515.7,286047001.6,N
1523890535.5,286047002.2,N
1523890555.4,286047002.2,N
1523890575.2,286047002.6,N
1523890595.0,286047001.9,N
1523890595.9,286047001.9,N
1523890615.8,286047001.3,N
1523890635.6,286047004.4,Y
1523890655.5,286047001.1,P
1523890675.3,286047002.3,P
1523890695.1,286047000.1,N
1523890715.9,286047002.0,N
1523890735.7,286046999.8,N
1523890755.6,286047000.6,N
1523890775.4,286047000.7,N
1523890795.2,286046998.6,N
